M I D A S
Marine Information and Data Acquisition System
Tripno 740 of the Zeeleeuw from 2004-06-28 06:41:01 to 2004-06-28 13:31:46
Back to CruiseResearch ActivitiesStationsMapUnderway DataData graphs

EquipmentUnitsComments
TimeDGPSUTC
LatitudeDGPSDM.mWGS84
LongitudeDGPSDM.mWGS84
SpeedMeteo Stationm/sRelative wind speed
DirectionMeteo StationdegRelative wind direction
TemperatureMeteo Stationdeg CelciusAir temperature
PressureMeteo StationPaAtmospheric pressure
HumidityMeteo Station%Relative humidity
Missing or incorrect values are displayed as -999
Metereological data collected by the RV Zeeleeuw from 2004-06-28 06:41:01 to 2004-06-28 13:31:46
Time Latitude Longitude Speed Direction Temperature Pressure Humidity
2004-06-28 06:42 51°13.6 2°56.078 4 198 14.7 102480 77
2004-06-28 06:43 51°13.628 2°55.988 5.3 186 14.9 102480 77
2004-06-28 06:44 51°13.658 2°55.878 6.9 182 15.1 102470 77
2004-06-28 06:45 51°13.663 2°55.788 4.2 246 15.1 102500 75
2004-06-28 06:46 51°13.682 2°55.804 5 262 14.9 102480 75
2004-06-28 06:47 51°13.7 2°55.788 5.4 347 14.8 102480 76
2004-06-28 06:48 51°13.776 2°55.685 5.6 19 14.9 102460 76
2004-06-28 06:49 51°13.884 2°55.589 8.2 342 14.8 102460 76
2004-06-28 06:50 51°14.005 2°55.504 6.9 336 14.8 102460 74
2004-06-28 06:51 51°14.142 2°55.413 13.3 335 14.9 102450 74
2004-06-28 06:52 51°14.272 2°55.249 12.5 355 14.8 102460 73
2004-06-28 06:53 51°14.4 2°55.027 13.5 349 14.8 102440 72
2004-06-28 06:54 51°14.585 2°54.844 15.5 351 14.8 102430 72
2004-06-28 06:55 51°14.778 2°54.66 15.6 351 14.8 102440 72
2004-06-28 06:56 51°14.959 2°54.492 14.6 351 14.8 102430 72
2004-06-28 06:57 51°15.155 2°54.307 14.1 349 14.7 102440 72
2004-06-28 06:58 51°15.349 2°54.128 14.6 346 14.8 102430 72
2004-06-28 06:59 51°15.539 2°53.948 14.2 350 14.7 102430 72
2004-06-28 07:00 51°15.729 2°53.769 13.7 349 14.8 102440 72
2004-06-28 07:01 51°15.92 2°53.593 14.2 352 14.8 102420 72
2004-06-28 07:02 51°16.123 2°53.463 13.6 343 14.8 102430 72
2004-06-28 07:03 51°16.331 2°53.317 13.8 349 14.8 102420 72
2004-06-28 07:04 51°16.532 2°53.169 15.1 349 14.8 102440 72
2004-06-28 07:05 51°16.728 2°53.026 15.4 347 14.8 102410 72
2004-06-28 07:06 51°16.928 2°52.874 14.8 346 14.7 102430 72
2004-06-28 07:07 51°17.133 2°52.715 14.6 354 14.7 102420 73
2004-06-28 07:08 51°17.324 2°52.569 14.9 354 14.7 102420 73
2004-06-28 07:09 51°17.508 2°52.369 14.4 359 14.7 102430 72
2004-06-28 07:10 51°17.665 2°52.113 15.2 4 14.6 102420 71
2004-06-28 07:11 51°17.809 2°51.854 14.9 1 14.7 102420 73
2004-06-28 07:12 51°17.954 2°51.599 15.2 2 14.6 102430 72
2004-06-28 07:13 51°18.093 2°51.351 14.7 360 14.6 102420 73
2004-06-28 07:14 51°18.234 2°51.075 14.8 1 14.6 102410 73
2004-06-28 07:15 51°18.357 2°50.815 15 2 14.5 102430 73
2004-06-28 07:16 51°18.489 2°50.534 13.5 2 14.5 102430 74
2004-06-28 07:17 51°18.622 2°50.252 15 3 14.5 102430 74
2004-06-28 07:18 51°18.75 2°49.978 14.1 357 14.5 102430 74
2004-06-28 07:19 51°18.87 2°49.718 14.1 358 14.5 102430 74
2004-06-28 07:20 51°19.003 2°49.436 14.8 357 14.5 102440 75
2004-06-28 07:21 51°19.131 2°49.164 14.1 6 14.6 102430 75
2004-06-28 07:22 51°19.259 2°48.89 13.8 2 14.6 102440 75
2004-06-28 07:23 51°19.365 2°48.596 15 9 14.5 102430 74
2004-06-28 07:24 51°19.467 2°48.299 15.6 11 14.5 102440 74
2004-06-28 07:25 51°19.556 2°47.993 14.2 4 14.5 102430 75
2004-06-28 07:26 51°19.645 2°47.692 15.1 10 14.5 102420 75
2004-06-28 07:27 51°19.734 2°47.393 15.1 9 14.5 102430 75
2004-06-28 07:28 51°19.812 2°47.071 14.5 12 14.5 102450 75
2004-06-28 07:29 51°19.883 2°46.764 14.6 9 14.5 102440 76
2004-06-28 07:30 51°19.956 2°46.449 14.9 9 14.5 102440 75
2004-06-28 07:31 51°20.03 2°46.13 15.3 9 14.5 102430 75
2004-06-28 07:32 51°20.105 2°45.822 14.8 11 14.5 102440 75
2004-06-28 07:33 51°20.167 2°45.514 14.3 17 14.5 102450 75
2004-06-28 07:34 51°20.202 2°45.195 14.5 12 14.5 102430 75
2004-06-28 07:35 51°20.239 2°44.865 14.4 11 14.5 102420 75
2004-06-28 07:36 51°20.278 2°44.534 15.4 9 14.4 102450 75
2004-06-28 07:37 51°20.317 2°44.213 14.7 14 14.4 102430 75
2004-06-28 07:38 51°20.357 2°43.895 13.6 18 14.4 102420 74
2004-06-28 07:39 51°20.399 2°43.563 14.3 9 14.4 102420 74
2004-06-28 07:40 51°20.439 2°43.237 15.7 14 14.4 102440 74
2004-06-28 07:41 51°20.478 2°42.91 13.7 17 14.4 102430 73
2004-06-28 07:42 51°20.516 2°42.584 14.1 15 14.4 102440 74
2004-06-28 07:43 51°20.553 2°42.261 14.3 16 14.4 102450 74
2004-06-28 07:44 51°20.583 2°41.94 14.8 16 14.4 102440 74
2004-06-28 07:45 51°20.611 2°41.616 14.1 19 14.5 102440 75
2004-06-28 07:46 51°20.638 2°41.291 13.3 20 14.4 102440 74
2004-06-28 07:47 51°20.665 2°40.975 14.6 15 14.4 102440 74
2004-06-28 07:48 51°20.694 2°40.636 15 19 14.4 102440 74
2004-06-28 07:49 51°20.717 2°40.308 14.6 23 14.4 102450 74
2004-06-28 07:50 51°20.74 2°39.989 14 20 14.4 102450 74
2004-06-28 07:51 51°20.766 2°39.648 15.1 20 14.4 102450 74
2004-06-28 07:52 51°20.791 2°39.317 14.3 19 14.4 102440 74
2004-06-28 07:53 51°20.816 2°38.987 14 15 14.4 102450 74
2004-06-28 07:54 51°20.841 2°38.669 14 20 14.4 102450 75
2004-06-28 07:55 51°20.868 2°38.33 13.8 23 14.4 102440 75
2004-06-28 07:56 51°20.893 2°38 14.1 19 14.4 102430 74
2004-06-28 07:57 51°20.918 2°37.67 15.5 19 14.4 102440 74
2004-06-28 07:58 51°20.943 2°37.342 14.2 13 14.4 102450 74
2004-06-28 07:59 51°20.969 2°37.017 14 17 14.3 102440 73
2004-06-28 08:00 51°20.992 2°36.693 14 20 14.3 102450 73
2004-06-28 08:01 51°21.018 2°36.367 14.6 19 14.3 102450 73
2004-06-28 08:02 51°21.043 2°36.041 13.5 17 14.3 102440 73
2004-06-28 08:03 51°21.072 2°35.718 14.2 19 14.3 102450 74
2004-06-28 08:04 51°21.098 2°35.4 13.7 21 14.3 102430 74
2004-06-28 08:05 51°21.128 2°35.063 14.4 18 14.3 102440 75
2004-06-28 08:06 51°21.156 2°34.736 14.4 18 14.3 102450 74
2004-06-28 08:07 51°21.184 2°34.422 14.2 15 14.3 102440 75
2004-06-28 08:08 51°21.214 2°34.086 14.1 16 14.3 102440 75
2004-06-28 08:09 51°21.244 2°33.758 13.1 16 14.3 102450 75
2004-06-28 08:10 51°21.272 2°33.433 14 17 14.3 102450 75
2004-06-28 08:11 51°21.338 2°33.134 13.4 353 14.2 102470 74
2004-06-28 08:12 51°21.54 2°32.98 12.3 340 14.3 102440 75
2004-06-28 08:13 51°21.769 2°32.941 12 335 14.3 102440 75
2004-06-28 08:14 51°22.002 2°32.939 11.5 330 14.3 102440 75
2004-06-28 08:15 51°22.236 2°32.941 12 342 14.4 102450 76
2004-06-28 08:16 51°22.467 2°32.951 12.3 336 14.3 102450 75
2004-06-28 08:17 51°22.672 2°32.831 14.3 357 14.4 102440 75
2004-06-28 08:18 51°22.786 2°32.552 13.7 21 14.3 102460 76
2004-06-28 08:19 51°22.811 2°32.242 13.8 20 14.3 102430 75
2004-06-28 08:20 51°22.817 2°31.907 13.6 12 14.3 102440 76
2004-06-28 08:21 51°22.826 2°31.585 12.7 20 14.3 102450 75
2004-06-28 08:22 51°22.808 2°31.233 12.7 21 14.3 102440 76
2004-06-28 08:23 51°22.791 2°30.917 13.7 17 14.3 102450 76
2004-06-28 08:24 51°22.783 2°30.592 14.4 21 14.2 102450 76
2004-06-28 08:25 51°22.777 2°30.268 13.2 17 14.2 102440 76
2004-06-28 08:26 51°22.77 2°29.949 13.3 21 14.2 102430 76
2004-06-28 08:27 51°22.762 2°29.62 14.4 16 14.2 102460 76
2004-06-28 08:28 51°22.755 2°29.297 14.6 22 14.2 102450 76
2004-06-28 08:29 51°22.737 2°28.973 14.5 19 14.3 102450 77
2004-06-28 08:30 51°22.718 2°28.647 13.7 27 14.2 102450 75
2004-06-28 08:31 51°22.699 2°28.294 14.1 25 14.2 102440 76
2004-06-28 08:32 51°22.681 2°27.972 14.2 26 14.2 102450 76
2004-06-28 08:33 51°22.663 2°27.651 13.5 22 14.2 102450 76
2004-06-28 08:34 51°22.644 2°27.33 13.3 27 14.2 102460 76
2004-06-28 08:35 51°22.624 2°27.006 14.6 22 14.2 102470 77
2004-06-28 08:36 51°22.632 2°26.647 13.9 22 14.2 102430 76
2004-06-28 08:37 51°22.665 2°26.322 14.9 13 14.2 102450 76
2004-06-28 08:38 51°22.819 2°26.094 13.4 342 14.2 102490 76
2004-06-28 08:39 51°23.029 2°25.96 14.4 349 14.2 102470 76
2004-06-28 08:40 51°23.25 2°25.823 12.1 354 14.3 102480 76
2004-06-28 08:41 51°23.463 2°25.693 13.8 345 14.3 102500 77
2004-06-28 08:42 51°23.691 2°25.621 13.5 342 14.3 102480 76
2004-06-28 08:43 51°23.93 2°25.608 14.1 332 14.3 102470 76
2004-06-28 08:44 51°24.165 2°25.619 13.6 338 14.3 102480 76
2004-06-28 08:45 51°24.409 2°25.639 11.6 336 14.3 102490 76
2004-06-28 08:46 51°24.65 2°25.655 13.4 334 14.3 102480 76
2004-06-28 08:47 51°24.889 2°25.666 13.4 336 14.3 102500 76
2004-06-28 08:48 51°25.137 2°25.681 14.3 327 14.3 102500 76
2004-06-28 08:49 51°25.387 2°25.695 13.3 341 14.3 102490 77
2004-06-28 08:50 51°25.633 2°25.747 12.1 328 14.3 102500 77
2004-06-28 08:51 51°25.872 2°25.825 11.7 332 14.3 102500 77
2004-06-28 08:52 51°26.111 2°25.906 13 327 14.2 102500 77
2004-06-28 08:53 51°26.35 2°25.984 11.2 331 14.2 102500 77
2004-06-28 08:54 51°26.59 2°26.06 11.3 330 14.3 102510 77
2004-06-28 08:55 51°26.831 2°26.139 10.6 332 14.2 102500 77
2004-06-28 08:56 51°27.072 2°26.215 11.2 330 14.3 102510 77
2004-06-28 08:57 51°27.312 2°26.294 10.2 333 14.2 102510 77
2004-06-28 08:58 51°27.552 2°26.368 10.5 329 14.3 102500 78
2004-06-28 08:59 51°27.794 2°26.447 11.3 333 14.3 102490 77
2004-06-28 09:00 51°28.035 2°26.525 10.1 326 14.3 102490 77
2004-06-28 09:01 51°28.266 2°26.6 10.9 333 14.3 102510 77
2004-06-28 09:02 51°28.521 2°26.677 11.6 325 14.3 102500 76
2004-06-28 09:03 51°28.753 2°26.755 10.2 328 14.3 102500 76
2004-06-28 09:04 51°28.878 2°26.775 6.1 331 14.3 102510 75
2004-06-28 09:05 51°28.89 2°26.819 5.7 228 14.3 102520 75
2004-06-28 09:06 51°28.901 2°26.862 5.1 302 14.4 102530 75
2004-06-28 09:07 51°28.913 2°26.904 5.4 293 14.4 102530 74
2004-06-28 09:08 51°28.93 2°26.944 4.6 292 14.5 102550 74
2004-06-28 09:09 51°28.95 2°26.987 5.8 293 14.6 102530 74
2004-06-28 09:10 51°28.971 2°27.03 5.8 284 14.6 102540 74
2004-06-28 09:11 51°29.047 2°27.057 9.4 337 14.6 102540 74
2004-06-28 09:12 51°29.242 2°26.978 11.2 343 14.6 102520 74
2004-06-28 09:13 51°29.469 2°26.878 13.2 345 14.5 102530 74
2004-06-28 09:14 51°29.689 2°26.783 12.6 340 14.5 102520 74
2004-06-28 09:15 51°29.914 2°26.689 12.3 338 14.5 102530 74
2004-06-28 09:16 51°30.144 2°26.595 11.9 343 14.5 102530 75
2004-06-28 09:17 51°30.371 2°26.505 11.6 344 14.5 102530 75
2004-06-28 09:18 51°30.593 2°26.416 11.7 339 14.5 102530 75
2004-06-28 09:19 51°30.822 2°26.325 11.9 339 14.5 102520 76
2004-06-28 09:20 51°31.045 2°26.24 11.9 338 14.5 102540 75
2004-06-28 09:21 51°31.272 2°26.153 11 341 14.5 102540 76
2004-06-28 09:22 51°31.5 2°26.067 11.6 337 14.5 102540 75
2004-06-28 09:23 51°31.731 2°25.981 11 348 14.5 102550 76
2004-06-28 09:24 51°31.959 2°25.926 9.5 336 14.5 102530 76
2004-06-28 09:25 51°32.199 2°25.971 9.5 330 14.5 102540 76
2004-06-28 09:26 51°32.439 2°26.015 8.7 329 14.5 102540 75
2004-06-28 09:27 51°32.682 2°26.058 9.4 330 14.4 102530 75
2004-06-28 09:28 51°32.92 2°26.112 8.4 332 14.4 102540 75
2004-06-28 09:29 51°33.153 2°26.236 8.3 324 14.4 102540 75
2004-06-28 09:30 51°33.377 2°26.363 6.8 324 14.4 102540 75
2004-06-28 09:31 51°33.6 2°26.548 7.4 327 14.4 102550 75
2004-06-28 09:32 51°33.815 2°26.718 8.4 322 14.4 102550 75
2004-06-28 09:33 51°34.047 2°26.916 7.7 315 14.4 102540 75
2004-06-28 09:34 51°34.249 2°27.138 6.9 314 14.4 102540 76
2004-06-28 09:35 51°34.456 2°27.356 6.8 43 14.4 102540 76
2004-06-28 09:36 51°34.664 2°27.56 7.9 322 14.4 102550 75
2004-06-28 09:37 51°34.869 2°27.771 7.3 322 14.5 102540 76
2004-06-28 09:38 51°35.075 2°27.992 8.2 323 14.5 102540 76
2004-06-28 09:39 51°35.294 2°28.235 7.2 43 14.5 102530 75
2004-06-28 09:40 51°35.522 2°28.482 7.1 328 14.5 102540 75
2004-06-28 09:41 51°35.728 2°28.704 7.6 324 14.5 102530 75
2004-06-28 09:42 51°35.932 2°28.921 7.6 43 14.5 102530 75
2004-06-28 09:43 51°36.134 2°29.146 7 315 14.5 102530 75
2004-06-28 09:44 51°36.338 2°29.367 5.8 319 14.5 102530 75
2004-06-28 09:45 51°36.55 2°29.594 6.4 321 14.5 102530 75
2004-06-28 09:46 51°36.754 2°29.816 7.3 327 14.5 102530 75
2004-06-28 09:47 51°36.957 2°30.031 6.6 323 14.5 102530 74
2004-06-28 09:48 51°37.162 2°30.255 7.1 328 14.6 102530 74
2004-06-28 09:49 51°37.356 2°30.499 7.1 318 14.6 102530 74
2004-06-28 09:50 51°37.547 2°30.761 7.4 325 14.6 102530 75
2004-06-28 09:51 51°37.731 2°31.018 7.7 327 14.6 102540 75
2004-06-28 09:52 51°37.92 2°31.284 6.4 321 14.6 102530 75
2004-06-28 09:53 51°38.108 2°31.536 6.4 330 14.6 102520 74
2004-06-28 09:54 51°38.294 2°31.797 6.6 324 14.6 102530 75
2004-06-28 09:55 51°38.482 2°32.055 6.4 318 14.6 102530 75
2004-06-28 09:56 51°38.674 2°32.309 6.3 324 14.6 102530 75
2004-06-28 09:57 51°38.867 2°32.564 7.1 320 14.6 102530 75
2004-06-28 09:58 51°39.064 2°32.793 7.1 328 14.6 102520 75
2004-06-28 09:59 51°39.262 2°33.028 7.8 328 14.6 102520 75
2004-06-28 10:00 51°39.469 2°33.262 6.7 332 14.6 102530 75
2004-06-28 10:01 51°39.667 2°33.498 7.6 331 14.7 102520 76
2004-06-28 10:02 51°39.863 2°33.729 6.5 338 14.6 102520 75
2004-06-28 10:03 51°40.074 2°33.98 6.6 332 14.6 102520 75
2004-06-28 10:04 51°40.277 2°34.213 7.6 322 14.6 102520 75
2004-06-28 10:05 51°40.472 2°34.445 6.9 326 14.6 102510 76
2004-06-28 10:06 51°40.674 2°34.682 6.6 329 14.6 102510 76
2004-06-28 10:07 51°40.869 2°34.915 7.9 332 14.7 102510 76
2004-06-28 10:08 51°41.074 2°35.151 7.9 334 14.6 102510 75
2004-06-28 10:09 51°41.275 2°35.385 7.8 323 14.6 102500 75
2004-06-28 10:10 51°41.474 2°35.611 7.8 323 14.7 102500 75
2004-06-28 10:11 51°41.671 2°35.844 7.5 331 14.7 102510 75
2004-06-28 10:12 51°41.867 2°36.075 7.4 333 14.7 102500 75
2004-06-28 10:13 51°42.063 2°36.311 7.9 324 14.7 102510 74
2004-06-28 10:15 51°42.198 2°36.653 3.9 337 14.7 102510 75
2004-06-28 10:16 51°42.236 2°37.035 3.3 347 14.7 102520 75
2004-06-28 10:17 51°42.161 2°37.379 4.3 44 14.8 102510 74
2004-06-28 10:18 51°42.036 2°37.701 5.1 45 14.8 102520 74
2004-06-28 10:19 51°41.907 2°37.99 3.6 26 14.7 102510 75
2004-06-28 10:20 51°41.775 2°38.294 4.4 32 14.6 102520 75
2004-06-28 10:21 51°41.657 2°38.595 3.6 31 14.6 102520 75
2004-06-28 10:22 51°41.538 2°38.901 3.2 16 14.6 102520 76
2004-06-28 10:23 51°41.421 2°39.205 3.9 31 14.5 102510 76
2004-06-28 10:24 51°41.306 2°39.51 4.5 50 14.6 102510 76
2004-06-28 10:25 51°41.192 2°39.821 4.7 53 14.5 102510 76
2004-06-28 10:26 51°41.078 2°40.133 4.4 46 14.4 102520 77
2004-06-28 10:27 51°40.961 2°40.434 4.4 61 14.4 102510 77
2004-06-28 10:28 51°40.851 2°40.744 3.6 45 14.4 102520 77
2004-06-28 10:29 51°40.743 2°41.063 4.3 43 14.4 102520 77
2004-06-28 10:30 51°40.636 2°41.382 4.2 48 14.4 102520 77
2004-06-28 10:31 51°40.521 2°41.706 3.9 46 14.4 102520 78
2004-06-28 10:32 51°40.41 2°42.018 4.4 52 14.4 102520 78
2004-06-28 10:33 51°40.3 2°42.332 4.7 51 14.4 102520 78
2004-06-28 10:34 51°40.187 2°42.652 4.8 40 14.3 102520 78
2004-06-28 10:35 51°40.075 2°42.967 4.2 40 14.3 102520 78
2004-06-28 10:36 51°39.968 2°43.27 4.3 47 14.4 102530 78
2004-06-28 10:37 51°39.857 2°43.587 5.1 43 14.3 102520 78
2004-06-28 10:38 51°39.746 2°43.901 3.9 42 14.3 102530 77
2004-06-28 10:39 51°39.64 2°44.208 4.7 39 14.3 102520 77
2004-06-28 10:40 51°39.534 2°44.518 4.5 52 14.4 102530 77
2004-06-28 10:41 51°39.412 2°44.831 5.1 51 14.3 102530 77
2004-06-28 10:42 51°39.23 2°45.001 7.6 51 14.3 102520 78
2004-06-28 10:43 51°39.028 2°45.071 9.2 44 14.3 102510 78
2004-06-28 10:44 51°38.825 2°45.026 10.1 40 14.2 102520 78
2004-06-28 10:45 51°38.624 2°44.973 10 43 14.2 102530 79
2004-06-28 10:46 51°38.427 2°44.905 10.3 35 14.2 102510 79
2004-06-28 10:47 51°38.231 2°44.819 10.8 38 14.2 102520 79
2004-06-28 10:48 51°38.045 2°44.721 10.4 36 14.2 102510 79
2004-06-28 10:49 51°37.887 2°44.516 11.6 20 14.2 102520 79
2004-06-28 10:50 51°37.823 2°44.208 12.4 16 14.3 102520 78
2004-06-28 10:51 51°37.774 2°43.883 11 12 14.5 102530 78
2004-06-28 10:52 51°37.761 2°43.552 11.3 6 14.5 102520 77
2004-06-28 10:53 51°37.805 2°43.206 11.6 7 14.6 102520 77
2004-06-28 10:54 51°37.854 2°42.866 12.4 2 14.5 102510 76
2004-06-28 10:55 51°37.901 2°42.525 11.7 359 14.6 102530 77
2004-06-28 10:56 51°37.947 2°42.183 12.2 357 14.6 102520 76
2004-06-28 10:57 51°37.991 2°41.842 12.4 4 14.6 102520 76
2004-06-28 10:58 51°38.035 2°41.514 12.8 359 14.6 102520 76
2004-06-28 10:59 51°38.061 2°41.17 12.2 10 14.6 102530 76
2004-06-28 11:00 51°38.011 2°40.841 12.6 14 14.6 102530 76
2004-06-28 11:01 51°37.954 2°40.518 12.5 16 14.6 102540 76
2004-06-28 11:02 51°37.857 2°40.224 12.3 17 14.6 102530 75
2004-06-28 11:03 51°37.737 2°39.964 12.1 24 14.6 102550 76
2004-06-28 11:04 51°37.598 2°39.72 11.8 26 14.6 102540 76
2004-06-28 11:05 51°37.406 2°39.646 9.2 41 14.6 102540 75
2004-06-28 11:06 51°37.2 2°39.634 11 41 14.5 102540 76
2004-06-28 11:07 51°36.996 2°39.606 11 37 14.4 102550 77
2004-06-28 11:08 51°36.791 2°39.571 11.2 36 14.3 102550 77
2004-06-28 11:09 51°36.59 2°39.538 11.1 38 14.3 102560 77
2004-06-28 11:10 51°36.38 2°39.507 11.8 35 14.3 102560 77
2004-06-28 11:11 51°36.174 2°39.474 11.7 36 14.3 102560 77
2004-06-28 11:12 51°35.967 2°39.437 11.9 34 14.3 102560 77
2004-06-28 11:13 51°35.764 2°39.374 11 39 14.3 102550 76
2004-06-28 11:14 51°35.563 2°39.322 10.8 34 14.3 102560 77
2004-06-28 11:15 51°35.356 2°39.267 12 38 14.4 102560 77
2004-06-28 11:16 51°35.153 2°39.234 10.3 47 14.3 102560 77
2004-06-28 11:17 51°34.968 2°39.387 8.4 54 14.3 102560 78
2004-06-28 11:18 51°34.79 2°39.587 7.8 52 14.3 102570 78
2004-06-28 11:19 51°34.61 2°39.779 7.6 55 14.3 102560 78
2004-06-28 11:20 51°34.446 2°40.009 7.4 59 14.3 102560 77
2004-06-28 11:21 51°34.295 2°40.258 6.6 68 14.3 102570 77
2004-06-28 11:22 51°34.128 2°40.518 8.3 58 14.4 102560 77
2004-06-28 11:23 51°33.929 2°40.635 10.5 49 14.4 102550 76
2004-06-28 11:24 51°33.719 2°40.723 10.3 49 14.4 102540 77
2004-06-28 11:25 51°33.508 2°40.74 10.3 41 14.4 102560 77
2004-06-28 11:26 51°33.304 2°40.712 11.8 35 14.4 102560 78
2004-06-28 11:27 51°33.086 2°40.688 11.9 40 14.5 102550 78
2004-06-28 11:28 51°32.877 2°40.669 11.5 39 14.4 102550 78
2004-06-28 11:29 51°32.668 2°40.607 12 37 14.3 102550 78
2004-06-28 11:30 51°32.475 2°40.474 12.9 32 14.4 102560 78
2004-06-28 11:31 51°32.283 2°40.353 11.7 28 14.3 102560 77
2004-06-28 11:32 51°32.081 2°40.241 11.1 34 14.4 102550 77
2004-06-28 11:33 51°31.881 2°40.155 11.7 42 14.5 102550 79
2004-06-28 11:34 51°31.675 2°40.062 12.3 34 14.4 102560 79
2004-06-28 11:35 51°31.477 2°39.943 11.2 36 14.4 102560 80
2004-06-28 11:36 51°31.282 2°39.816 12.1 33 14.4 102570 80
2004-06-28 11:37 51°31.086 2°39.687 12.1 35 14.4 102560 80
2004-06-28 11:38 51°30.891 2°39.561 11.5 27 14.4 102570 79
2004-06-28 11:39 51°30.698 2°39.437 11.8 29 14.4 102580 79
2004-06-28 11:40 51°30.512 2°39.274 12.1 18 14.5 102580 78
2004-06-28 11:41 51°30.394 2°38.993 13.3 15 14.5 102570 78
2004-06-28 11:42 51°30.276 2°38.708 11.6 15 14.6 102570 77
2004-06-28 11:43 51°30.154 2°38.425 12.3 17 14.6 102580 77
2004-06-28 11:44 51°30.031 2°38.141 12.9 13 14.6 102580 77
2004-06-28 11:45 51°29.909 2°37.862 12.8 17 14.7 102580 76
2004-06-28 11:46 51°29.786 2°37.585 13 13 14.7 102570 76
2004-06-28 11:47 51°29.656 2°37.293 13.2 11 14.7 102580 76
2004-06-28 11:48 51°29.532 2°37.006 12.4 9 14.8 102580 76
2004-06-28 11:49 51°29.406 2°36.721 12.4 17 14.8 102580 76
2004-06-28 11:50 51°29.281 2°36.435 11.5 15 14.8 102580 76
2004-06-28 11:51 51°29.157 2°36.15 12.2 10 14.8 102580 77
2004-06-28 11:52 51°29.031 2°35.866 12.5 12 14.8 102590 77
2004-06-28 11:53 51°28.909 2°35.58 12.2 17 14.8 102590 76
2004-06-28 11:54 51°28.733 2°35.408 12.2 25 14.8 102570 76
2004-06-28 11:55 51°28.522 2°35.374 10.6 39 14.7 102590 75
2004-06-28 11:56 51°28.31 2°35.43 10.1 44 14.6 102580 75
2004-06-28 11:57 51°28.098 2°35.505 10.1 40 14.6 102580 76
2004-06-28 11:58 51°27.883 2°35.57 4.4 41 14.5 102580 77
2004-06-28 11:59 51°27.667 2°35.631 11.1 38 14.4 102570 76
2004-06-28 12:00 51°27.452 2°35.684 10.2 38 14.5 102570 76
2004-06-28 12:01 51°27.232 2°35.745 10.9 37 14.5 102570 76
2004-06-28 12:02 51°27.016 2°35.804 11.9 37 14.5 102570 77
2004-06-28 12:03 51°26.8 2°35.863 10.7 35 14.5 102570 77
2004-06-28 12:04 51°26.568 2°35.922 11.8 39 14.5 102570 77
2004-06-28 12:05 51°26.352 2°35.99 11.2 39 14.4 102580 75
2004-06-28 12:06 51°26.139 2°36.075 10.4 40 14.4 102580 75
2004-06-28 12:07 51°25.931 2°36.153 9.4 39 14.5 102580 76
2004-06-28 12:08 51°25.714 2°36.237 10.3 48 14.5 102580 75
2004-06-28 12:09 51°25.506 2°36.324 10.1 47 14.5 102580 75
2004-06-28 12:10 51°25.301 2°36.427 9.8 44 14.5 102590 75
2004-06-28 12:11 51°25.096 2°36.55 9.8 49 14.5 102590 75
2004-06-28 12:12 51°24.891 2°36.67 10.5 50 14.6 102590 76
2004-06-28 12:13 51°24.689 2°36.808 10.3 42 14.6 102590 75
2004-06-28 12:14 51°24.484 2°36.947 10.4 59 14.6 102590 76
2004-06-28 12:15 51°24.254 2°37.095 10.3 47 14.6 102590 76
2004-06-28 12:16 51°24.043 2°37.235 10.4 44 14.6 102600 76
2004-06-28 12:17 51°23.841 2°37.37 10.3 57 14.6 102600 76
2004-06-28 12:18 51°23.642 2°37.5 10.2 48 14.7 102600 76
2004-06-28 12:19 51°23.425 2°37.61 10.4 45 14.7 102600 77
2004-06-28 12:20 51°23.219 2°37.677 10.2 43 14.7 102600 77
2004-06-28 12:21 51°23 2°37.75 11 45 14.7 102600 76
2004-06-28 12:22 51°22.788 2°37.821 12 49 14.8 102610 77
2004-06-28 12:23 51°22.571 2°37.89 10.4 43 14.7 102610 76
2004-06-28 12:24 51°22.351 2°37.962 11.5 52 14.8 102610 77
2004-06-28 12:25 51°22.139 2°38.029 10.9 49 14.8 102610 76
2004-06-28 12:26 51°21.922 2°38.097 10.7 43 14.8 102610 77
2004-06-28 12:27 51°21.706 2°38.172 10.6 54 14.8 102610 76
2004-06-28 12:28 51°21.503 2°38.318 10.2 57 14.8 102620 77
2004-06-28 12:29 51°21.3 2°38.473 10.3 57 14.8 102620 77
2004-06-28 12:30 51°21.124 2°38.688 7.9 58 14.8 102620 76
2004-06-28 12:31 51°20.954 2°38.929 8.2 60 14.9 102620 77
2004-06-28 12:32 51°20.789 2°39.151 8.9 62 14.9 102630 77
2004-06-28 12:33 51°20.665 2°39.448 4.9 78 14.9 102630 76
2004-06-28 12:34 51°20.652 2°39.781 3.2 79 14.9 102650 76
2004-06-28 12:35 51°20.661 2°40.132 2.9 75 14.9 102660 76
2004-06-28 12:36 51°20.64 2°40.491 3.9 76 15 102640 76
2004-06-28 12:37 51°20.615 2°40.845 4.4 82 15 102650 77
2004-06-28 12:38 51°20.593 2°41.192 3.8 79 15 102640 77
2004-06-28 12:39 51°20.571 2°41.543 3.7 81 15 102650 77
2004-06-28 12:40 51°20.549 2°41.888 3.6 82 15 102650 76
2004-06-28 12:41 51°20.526 2°42.232 3.6 83 15 102650 76
2004-06-28 12:42 51°20.504 2°42.572 3.7 80 15 102650 76
2004-06-28 12:43 51°20.476 2°42.91 3.6 69 14.9 102650 74
2004-06-28 12:44 51°20.454 2°43.257 4.6 62 15 102650 74
2004-06-28 12:45 51°20.412 2°43.589 3.5 61 15 102650 75
2004-06-28 12:46 51°20.367 2°43.952 4.9 67 15.1 102650 76
2004-06-28 12:47 51°20.324 2°44.296 4.8 70 15.1 102650 75
2004-06-28 12:48 51°20.241 2°44.612 4.4 50 15.1 102650 76
2004-06-28 12:49 51°20.155 2°44.942 4.8 76 15.1 102650 77
2004-06-28 12:50 51°20.063 2°45.273 5.6 57 15 102640 76
2004-06-28 12:51 51°19.983 2°45.595 4.7 73 15 102650 76
2004-06-28 12:52 51°19.901 2°45.915 3.5 73 15 102650 75
2004-06-28 12:53 51°19.818 2°46.229 3.9 78 15 102650 74
2004-06-28 12:54 51°19.712 2°46.518 4.5 79 15 102650 75
2004-06-28 12:55 51°19.591 2°46.812 4.1 72 15.1 102650 74
2004-06-28 12:56 51°19.467 2°47.108 5.1 64 15.1 102650 75
2004-06-28 12:57 51°19.352 2°47.414 4 70 15.1 102650 75
2004-06-28 12:58 51°19.245 2°47.722 4.5 72 15.2 102650 75
2004-06-28 12:59 51°19.139 2°48.027 4.7 71 15.2 102660 75
2004-06-28 13:00 51°19.027 2°48.342 4.4 81 15.2 102660 75
2004-06-28 13:01 51°18.925 2°48.64 4.1 72 15.2 102660 74
2004-06-28 13:02 51°18.825 2°48.937 4.8 69 15.2 102660 74
2004-06-28 13:03 51°18.722 2°49.24 3.5 74 15.2 102660 74
2004-06-28 13:04 51°18.619 2°49.536 5 82 15.2 102660 75
2004-06-28 13:05 51°18.516 2°49.833 5.1 75 15.2 102660 73
2004-06-28 13:06 51°18.409 2°50.139 3.7 70 15.2 102660 73
2004-06-28 13:07 51°18.299 2°50.442 6.1 65 15.3 102660 74
2004-06-28 13:08 51°18.166 2°50.717 4.8 74 15.3 102650 74
2004-06-28 13:09 51°18.026 2°51.01 5.1 63 15.3 102650 74
2004-06-28 13:10 51°17.897 2°51.285 4.5 63 15.2 102660 72
2004-06-28 13:11 51°17.766 2°51.56 5.1 68 15.3 102660 73
2004-06-28 13:12 51°17.627 2°51.827 5.7 71 15.4 102660 74
2004-06-28 13:13 51°17.462 2°52.064 5.8 76 15.3 102650 73
2004-06-28 13:14 51°17.269 2°52.237 7.5 63 15.4 102650 72
2004-06-28 13:15 51°17.051 2°52.332 8.4 65 15.3 102640 72
2004-06-28 13:16 51°16.838 2°52.443 8.8 61 15.3 102640 72
2004-06-28 13:17 51°16.602 2°52.571 7.2 69 15.3 102650 73
2004-06-28 13:18 51°16.395 2°52.69 7.9 65 15.3 102650 72
2004-06-28 13:19 51°16.178 2°52.815 7.2 65 15.4 102640 73
2004-06-28 13:20 51°15.968 2°52.947 7 68 15.3 102650 72
2004-06-28 13:21 51°15.758 2°53.083 6 68 15.4 102650 71
2004-06-28 13:22 51°15.55 2°53.245 6.7 69 15.4 102650 72
2004-06-28 13:23 51°15.354 2°53.416 6.1 76 15.5 102650 72
2004-06-28 13:24 51°15.171 2°53.601 4.2 70 15.4 102660 69
2004-06-28 13:25 51°15.005 2°53.826 4.6 79 15.6 102660 72
2004-06-28 13:26 51°14.849 2°54.053 3.9 84 15.6 102660 71
2004-06-28 13:27 51°14.711 2°54.294 3.6 84 15.6 102660 71
2004-06-28 13:28 51°14.577 2°54.548 3.3 91 15.7 102660 71
2004-06-28 13:29 51°14.459 2°54.812 2 76 15.7 102670 69
2004-06-28 13:30 51°14.356 2°55.08 2.7 105 15.8 102670 68
2004-06-28 13:31 51°14.251 2°55.286 2.7 80 15.8 102660 68